Showing default

ASNARO, 40298

Orbit data source: Space-Track

ASNARO, 40298 is a payload satellite owned by J-spacesystems (JP) in SSO that was launched on Thu, 06 Nov 2014 UTC via a DNEPR launch vehicle from the Orenburg, Russia (OREN). Payloads include a variety of satellites, spacecraft, and rockets equipped with specific instruments for various scientific and technological missions. These include communications satellites like Starlink; space stations such as the ISS; scientific satellites like the Hubble; Earth observation satellites from companies like Planet Labs, Umbra, and HawkEye 360; GPS; miniature CubeSats for education and research; and military/defense satellites.

Loading next visibility...
ASNARO details
Identifier
40298, 2014-070A
Orbit
SSO
Last TLE update7 hours ago
Origin
Flag of JPJ-spacesystems (JP / JPN)
ManufacturerNEC Toshiba/Fuchu
MissionOperational Civil Imaging
Bus & MotorNEXTAR-300L, AOCS?
Mass495 kg wet, 450 kg dry
Launch date (UTC)
2014-11-06 (10 years ago)
Launch vehicle
DNEPR
Launch site
Orenburg, Russia (OREN)
Object type
Payload
Rocket body
Debris
Shape & HBRCyl + 2 Pan, 3.5 m
Radar Cross Section9.327 m², Large (>1 m²)

Expand to show TLE details & history

TLE from 7 hours ago
0 ASNARO
1 40298U 14070A   24340.16200160  .00025377  00000-0  11943-2 0  9998
2 40298  97.3982  58.4469 0002425 218.6726 141.4336 15.19529182559132
Epoch: 2024-12-05T03:53Z
Definitive object data (Epoch: 2024-12-05T03:53:16.938Z)
Latitude0.00004°
Longitude-74.32044°
Altitude511.658 km
Speed7.607 km/s
True Right ascension03h 53m 47s
True Declination0° 00' 00"
Sunlit
Object was in full shadow at TLE epoch
Visualization TLE readout
Latitude72.30326°
Longitude129.82915°
Altitude520.3 km
Speed7.61 km/s
Apparent Right ascension19h 44m 12s
Apparent Declination20° 50' 03"
Sunlit
Object is in daylight
Visualization observer readout
Local Sidereal Time08:38:58
Azimuth14.497° NNE
Elevation-27.921°
Doppler factor1
Orbital elements
Apogee altitude505.898 km
Perigee altitude502.56 km
Semi-major axis6,882.366 km
Eccentricity0.0002425
Inclination97.3982°
RAAN58.4469°
Arg. of periapsis218.6726°
True anomaly141.45092°
Mean anomaly141.4336°
Eccentric anomaly141.44226°
Mean motion3.80134 °/min
BSTAR0.0011943
Orbital period94.7 mins
Loading maneuver chart data...
Loading historical data...
Loading historical data...
Loading historical data...
Loading historical data...
Loading historical data...
Loading historical data...
Loading historical data...

ASNARO Visibility forecast

Observer location: undefined°, undefined

Span
Click to sort rows by Start time (UTC) header in descending order
Start Az.
Max El. time (UTC)
Max El. Az.
Max El.
End time (UTC)
End Az.
5 mins2024-12-05 18:41:32.443Z343.249° N2024-12-05 18:43:32.443Z269.077° W34.493°2024-12-05 18:46:32.443Z214.025° SW
5 mins2024-12-06 05:19:32.443Z148.567° SSE2024-12-06 05:21:32.443Z41.943° NE41.074°2024-12-06 05:24:32.443Z354.976° N
|